SHIYAN 23 (SY-23)

导读

SHIYAN 23(SY-23,试验二十三号)是中国自主研制的空间试验卫星,于北京时间2024年5月12日(公开信息显示发射日为5月12日,与提供日期记录差一天)在酒泉卫星发射中心由长征四号丙运载火箭发射升空,卫星顺利进入预定轨道,发射任务取得圆满成功。该卫星主要承担空间环境探测任务,为中国空间科学研究提供一手观测数据,是长征系列运载火箭第522次飞行任务。

基本信息
目录编号:
59728
目录名称:
SHIYAN 23 (SY-23)
国际标识:
2024-089A
轨道中心:
EARTH
卫星名称:
SHIYAN 23 (SY-23)
卫星全名:
--
卫星状态:
在轨 (已飞行856 天)
发射日期:
2024-05-11 UTC
国别 :
中国 (CN)
星等 :
--
该卫星已列入 空间交会检测服务 Space Conjunction Data Service (SCDS) ,当前飞行风险评估等级: 无高风险
轨道信息
数据来源 国际轨道数据 AOE轨道数据
星历时间 2026-09-14T01:59:06+0800
9小时前
查看轨道信息
2026-09-13T02:00:00+0800
1天前
查看轨道信息
半长轴 6985.03km 6985.013km
偏心率 0.0002384 0.0002496
轨道倾角 97.782° 97.781°
近地点辐角 262.875° 266.436°
升交点赤经 256.740° 255.760°
平近点角 97.219° 146.606°
近地点 605.227km 605.132km
远地点 608.559km 608.62km
周期 96.830分钟 96.830分钟
每日圈数 14.87135 14.871405
详细信息
使用方式:
暂无
2D轨道图
3D轨道图
轨道高度分析图
轨道倾角分析图
轨道综合分析图
查看轨道综合分析图
交会数据列表
事件ID 空间交会对象 最接近时刻(TCA) 交会距离 交会风险概率(CRP) 交会风险指数(CRI) 操作
CDM_260915-160200-182905-972824
2026-09-15T
16:02:47+0000
1.888 km
极远距离
3.161087E-6 低风险 0.45
CDM_260910-135105-972806-555625
2026-09-10T
13:51:45+0000
1.974 km
极远距离
2.638735E-6 低风险 0.43
与全量物体交会距离演化趋势 订阅飞行安全评估服务
与全量物体交会风险概率演化趋势 订阅飞行安全评估服务